Powrót do katalogu

STARLINK-37990

AktywnyŁącznośćSSO
NORAD 69683·PAYLOAD·🇺🇸 United States

Wystrzelony Jun 25, 2026 z Vandenberg Space Force Base

Loading…

Następne Przeloty (najbliższe 24 godziny)

TLE

ŚwieżeSource: CelesTrak SupGP

Epoka: Sep 14, 2026, 22:55 UTC

1 69683C 26145G   26257.95534722  .00085593  00000+0  26575-2 0  2572
2 69683  97.2849 104.6579 0002026  97.8087 162.2227 15.33388612    17

Śledź STARLINK-37990 w czasie rzeczywistym z AllMySat

Download on the App Store